Tracking 28125 objects as of 4-Oct-2023
HD Live streaming from Space Station
objects crossing your sky now

THORAD AGENA D DEB

Track THORAD AGENA D DEB now!
10-day predictions


NORAD ID: 42514
Int'l Code: 1970-025RU
Perigee: 1,043.6 km
Apogee: 1,322.5 km
Inclination: 99.3 °
Period: 108.9 minutes
Semi major axis: 7554 km
RCS: Unknown
Launch date: April 8, 1970
Source: United States (US)
Launch site: AIR FORCE WESTERN TEST RANGE (AFWTR)

Note: This is SATELLITE DEBRIS
Your satellite tracking list
Your tracking list is empty




NASA's NSSDC Master Catalog

Two Line Element Set (TLE):
1 42514U 70025RU  23276.82438087  .00000416  00000-0  99546-3 0  9997
2 42514  99.3398 126.4455 0184558 156.5688 204.3977 13.22306930476059
Source of the keplerian elements: AFSPC